Flag for Austria Weather past 2 weeks in Enns, Upper Austria, Austria

Now
75 °F

Overcast.


Feels Like: 78 °F
Forecast: 50 / 76 °F
Wind: N/A

Location: Linz / Hoersching-Flughafen

Current Time: Aug 29, 2014 at 4:23:00 PM

Latest Report: Aug 29, 2014 at 3:00 PM


Visibility: 18 mi

Pressure: 30.01 "Hg

Humidity: 51%

Dew point: 56 °F

Location of EnnsLocation

Historic Weather in Enns — Graph

°F

Enns temperature yesterday

Maximum temperature yesterday: 73 °F (at 7:00 PM)
Minimum temperature yesterday: 46 °F (at 7:00 AM)
Average temperature yesterday: 57 °F

Past Weeks' High & Low Weather Summary

 TemperatureHumidityPressure
High76 °F (Aug 18, 4:00 PM)98% (Aug 27, 12:00 AM)30.16 "Hg (Aug 27, 12:00 AM)
Low44 °F (Aug 25, 6:00 AM)35% (Aug 28, 6:00 PM)29.73 "Hg (Aug 26, 7:00 PM)
Average59 °F78%29.99 "Hg
* Reported Aug 14 3:00 PM — Aug 29 3:00 PM, Enns, Weather by CustomWeather, © 2014

Note: Actual official high and low records may vary slightly from our data, if they occured in-between our weather recording intervals... More about our weather records

Advertising

Enns weather history for previous 24 hours

 ConditionsComfort  
Time TempWeatherWind HumidityBarometerVisibility
3:00 PM
Aug 29
75 °FOvercast.N/A51%30.01 "Hg18 mi
2:00 PM75 °FPartly sunny.N/A49%30.02 "Hg19 mi
1:00 PM72 °FScattered clouds.N/A53%30.03 "Hg22 mi
12:00 PM68 °FScattered clouds.N/A59%30.05 "Hg22 mi
11:00 AM66 °FPassing clouds.N/A65%30.07 "Hg19 mi
10:00 AM61 °FScattered clouds.N/A72%30.09 "Hg16 mi
9:00 AM57 °FPartly sunny.N/A77%30.10 "Hg19 mi
8:00 AM54 °FPassing clouds.N/A83%30.11 "Hg16 mi
7:00 AM50 °FPassing clouds.N/A94%30.12 "Hg13 mi
6:00 AM50 °FPassing clouds.N/A96%30.12 "Hg7 mi
5:00 AM48 °FPassing clouds.N/A97%30.12 "Hg6 mi
4:00 AM50 °FPassing clouds.N/A93%30.12 "Hg7 mi
3:00 AM50 °FCool.N/A91%30.12 "Hg13 mi
2:00 AM51 °FCool.N/A93%30.12 "Hg9 mi
1:00 AM53 °FCool.N/A89%30.11 "Hg19 mi
12:00 AMN/APassing clouds.17 mphN/AN/A2 mi
11:00 PM
Aug 28
56 °FPassing clouds.N/A82%30.09 "Hg28 mi
10:00 PM57 °FPassing clouds.N/A78%30.08 "Hg31 mi
9:00 PM60 °FPassing clouds.N/A67%30.07 "Hg28 mi
8:00 PM66 °FPassing clouds.N/A53%30.04 "Hg28 mi
7:00 PM73 °FPassing clouds.N/A35%30.03 "Hg25 mi
6:00 PM73 °FSunny.N/A35%30.04 "Hg25 mi
5:00 PM72 °FSunny.N/A37%30.05 "Hg18 mi
4:00 PM71 °FPassing clouds.N/A39%30.06 "Hg25 mi
Weather by CustomWeather, © 2014

See weather overviewHow to use our weather pages